Vertical_Velocity
-1 4 -4 -4 -3 -1 -3 -4 -6 -4 -6 -0 -2 0 4 -1 2 0 -0 -1 4 -2 -2 1 4 0 -2 -2 1 2 5 3 3 4 2 -2 2 -0 2 -0 -3 -4 -1 -1 4 4 -9 2 1 4 9 -1 4 1
1 1 4 -2 -2 -0 -2 1 -2 -2 -6 -10 -1 -2 4 -2 6 -2 3 0 2 2 -4 -2 0 -1 2 -1 5 1 6 -1 1 3 1 1 1 2 -1 -0 2 0 -6 0 -4 -12 1 0 -2 -4 3 5 -7 6
13 14 5 3 -1 1 -2 1 1 -3 2 9 -3 -6 -4 -1 4 3 -2 -3 3 -2 -13 3 -7 -0 -4 -3 16 -3 -2 -2 -2 0 -2 -1 2 2 0 -6 6 0 -1 1 8 -7 -4 2 -8 -2 -0 7 6 -2
4 6 2 1 2 -1 -1 1 1 -0 -2 -1 3 -1 0 -1 6 6 5 4 2 -0 1 -4 -5 -3 1 -1 -3 7 9 -0 4 2 -0 -0 0 1 -1 -2 3 -2 2 -2 -8 -8 -3 -8 11 9 -3 -2 -7 -4
-1 -5 -4 -3 2 4 -0 -2 1 -0 -2 -3 -2 -3 -4 -1 1 3 7 -2 4 -1 3 -3 -3 -1 -2 1 4 3 1 6 1 3 2 -1 -1 4 -1 5 0 -4 -8 5 -11 -7 14 -6 -6 -1 -0 -2 -1 6
5 7 7 2 4 -7 1 1 1 -4 2 3 2 -1 5 -4 -5 -1 -1 -2 3 -2 2 1 4 -3 2 2 -1 2 5 6 2 -2 -2 -1 -6 6 3 0 -7 -5 -2 -0 -12 1 3 -5 -1 -2 5 2 -0 2
-3 -1 0 2 2 1 1 1 3 2 -0 -2 -3 2 -2 -4 4 -1 -3 1 0 15 6 -2 -1 3 -5 0 0 -2 2 4 4 -1 2 -2 -1 4 2 2 -15 -7 -6 -10 -4 9 -6 -1 -3 -1 0 -1 -0 -4
-0 2 7 -4 -5 -3 6 6 2 -3 -4 -1 -3 1 6 3 -0 0 -1 -4 1 -2 -1 2 -6 4 -2 0 2 -0 4 0 2 -0 3 0 2 2 2 -7 -1 3 -0 -7 -7 5 1 -5 -3 -1 -2 -2 -2 -0
-2 -3 -3 6 -2 4 -0 0 2 3 0 -1 4 1 -1 2 1 0 -1 -4 1 1 1 2 1 -1 0 1 -0 0 -0 2 1 0 -1 2 0 -2 -8 -1 -0 -2 -2 -3 -2 -1 3 -1 0 2 -1 -1 0 -2
-3 0 -4 1 3 -0 -1 4 1 0 -4 -2 2 -1 5 3 -3 -1 5 2 4 3 2 0 0 1 -3 -0 1 2 -1 -1 1 -4 2 3 -7 -14 -3 10 1 1 0 -0 -1 -3 -2 -2 -2 -3 -0 2 3 -1
2 1 -3 -2 5 1 4 -4 0 1 1 1 -0 2 -0 -4 1 0 1 1 1 2 0 -2 2 2 -3 3 -1 -1 -0 0 2 -2 2 -1 -2 -4 -1 0 -1 -2 -3 -5 -4 -0 1 -1 -5 -1 -5 0 3 5
3 -7 -1 3 4 0 -2 3 1 0 -2 -1 -2 1 -1 -0 -1 3 -1 1 3 -3 1 2 0 -2 -0 -0 4 2 -0 4 -2 -1 5 0 -6 -1 -5 -5 -5 -4 -1 -3 4 -1 -4 -2 3 1 -2 -4 -2 -3
-1 4 1 0 9 6 0 1 2 0 -0 -2 -1 -2 -1 1 4 3 -1 0 1 1 1 2 1 -0 2 0 1 3 5 -3 -3 4 -3 -4 -0 1 -0 3 2 -9 -8 9 3 4 3 1 1 6 1 5 2 -1
2 4 4 2 -0 -1 4 11 1 -2 -1 0 -0 1 -0 2 -1 -3 -2 -1 -0 -2 -1 1 -0 2 2 2 -1 5 -3 2 2 2 -5 0 -2 -2 3 -8 -1 -5 -5 -5 -3 -1 -3 -1 -5 -2 3 -0 1 -3
1 -0 1 0 -1 0 3 1 -0 -1 -1 -0 0 -2 0 -8 -0 1 -0 -1 -3 -1 0 0 -2 3 -1 3 0 1 3 -0 -2 -4 1 -2 -2 6 1 -10 -0 0 4 0 1 1 -3 1 2 -7 -0 3 3 -1
2 7 -2 0 1 -1 8 8 2 -1 -3 -0 1 2 -2 2 -3 1 0 -3 -0 0 0 -2 0 1 -2 1 4 -3 4 -3 -3 0 -1 -0 -1 -4 -2 1 -2 -4 -1 -1 -3 -1 -1 -3 -1 -3 -9 -5 3 2
6 -5 -8 0 0 7 8 2 -1 -6 -1 1 -4 -4 1 1 -1 4 -0 -3 1 5 -1 0 3 -8 -1 2 1 0 -1 -3 1 -5 0 5 5 -2 4 1 1 5 3 6 3 1 1 -1 -1 4 -6 -13 5 -0
5 1 -4 0 6 13 9 14 -0 4 1 -3 1 -6 -1 -1 -2 -4 -1 -1 -1 1 3 -4 4 5 -0 2 -8 -10 -6 -16 -16 -9 -6 -10 -7 -2 4 1 -2 -1 -4 -6 -0 -1 1 0 -2 -10 1 -2 -5 -5
-0 -4 -0 -2 -1 -3 1 9 6 3 -8 -2 -4 5 3 -7 -8 -3 3 7 7 8 3 1 4 -1 -5 -6 -4 -11 -7 2 -4 -12 -3 -5 -3 -3 -4 -4 -1 -4 -4 -7 -5 -5 -3 1 -1 -2 1 6 -7 -5
6 2 2 6 0 3 6 1 1 1 -2 -12 -2 -5 2 -6 -2 2 1 5 13 1 5 2 -4 -18 -5 -21 -1 0 -5 1 13 2 -11 -13 -5 4 -3 3 -3 -1 3 -3 -5 3 -1 -7 -2 5 -0 1 -1 -9
87 18 21 15 27 9 -6 -2 2 -2 -1 -1 -2 11 -4 5 -1 -2 -8 11 11 -2 -1 -17 -14 -16 3 -3 8 11 -1 9 4 9 -7 -6 -7 6 -4 -3 5 4 1 2 9 -5 7 -6 -8 5 0 -4 2 -2
-2 2 3 23 8 9 3 2 1 1 -1 -1 -4 -2 0 1 -2 -4 2 7 -4 -21 -15 1 -7 2 2 -7 -12 10 -1 12 -2 -7 -2 8 -6 -3 -5 -6 4 -5 2 -2 0 -4 -7 4 1 1 3 -5 5 1
1 -4 -4 -5 0 2 -1 2 -0 -1 2 -0 3 2 0 0 -5 10 1 -3 -16 -17 4 3 -14 3 1 -10 3 -8 4 3 -5 -0 -4 -2 -4 -0 2 -9 2 3 -4 -18 15 -3 -7 3 -1 1 3 1 1 -2
7 -5 -2 -1 1 -1 3 1 1 1 1 1 1 0 -0 -4 2 3 -1 -7 -32 5 -4 -13 18 -7 0 3 -5 -9 -9 11 -2 -4 5 2 -2 -11 -3 -4 -6 -3 -0 -10 3 -0 -1 -2 6 -0 2 -2 1 -0
1 -1 2 1 3 4 2 2 1 4 -0 -1 2 -1 -2 1 1 1 -2 -19 -5 -3 1 2 0 2 -1 -12 -2 -9 -1 13 -0 -9 -8 1 -5 -1 -5 -6 -4 -1 4 -4 -3 2 -2 5 3 -1 0 3 0 -2
3 -6 -0 -3 0 0 -2 0 -0 -3 -0 1 -3 -2 -0 1 3 -4 -4 -13 0 -2 -3 1 3 3 -5 -0 -7 -5 -11 18 9 4 -25 18 -6 -1 -5 5 -4 -22 17 -2 1 -1 -4 3 1 1 -3 4 4 2
1 -1 -2 4 1 1 2 1 1 1 0 -1 -2 1 1 2 -3 -10 -14 -5 -4 -5 5 5 8 5 -4 -7 2 5 3 10 9 -11 -4 9 7 14 6 -0 -5 -18 21 -1 1 2 -1 -1 -2 1 -3 -2 0 4
-6 1 -5 -6 1 2 -1 0 0 -2 -2 -2 3 -1 -2 -5 -14 -28 -3 5 10 -1 -5 -1 4 7 -2 1 3 -1 -10 12 3 4 -3 -12 1 1 6 -1 -8 -11 7 9 11 5 -0 0 2 4 2 -3 1 9
0 -2 2 1 2 1 -3 -3 -3 -6 -5 3 1 -3 -11 -17 -11 -3 -13 2 5 5 -4 -7 -21 26 -0 2 -1 -3 1 6 7 -2 -1 -13 -8 -9 10 -2 -2 4 7 1 6 -0 2 0 1 2 4 -2 2 2
-2 -0 2 2 0 -3 -19 -6 -12 1 1 -4 2 2 1 -16 -24 9 -5 -1 9 -3 -1 6 -2 7 -6 6 -7 -6 11 6 6 6 -2 -5 -11 -2 5 1 1 2 2 0 1 1 3 2 -0 -0 1 2 0 -3
-0 3 3 2 -4 -16 -11 0 0 6 9 -3 5 3 -20 -15 -25 -4 20 -5 -6 2 2 -3 -0 11 7 2 4 1 -17 4 6 6 3 0 -0 -2 1 2 -0 1 1 2 4 4 1 -1 -0 0 1 -0 -1 -0
5 -1 -1 0 -5 -4 5 1 -1 -1 -4 5 -8 4 -0 9 -2 -30 -9 5 6 4 5 3 -0 -6 3 2 4 7 7 -0 0 3 4 2 -1 -0 2 -0 -0 0 1 2 2 1 1 -0 -0 0 0 0 1 2
2 1 1 -0 -1 -0 -2 2 1 -2 2 -1 -3 2 3 1 -5 -7 -5 2 2 1 -1 1 2 1 -0 0 1 -0 2 1 2 2 2 3 3 1 1 -1 -0 0 2 2 1 2 1 1 -0 1 -0 -1 1 2
Height
1515 1515 1518 1521 1522 1522 1522 1522 1523 1522 1522 1523 1522 1522 1521 1522 1520 1521 1520 1521 1522 1521 1517 1517 1518 1517 1518 1519 1514 1516 1515 1514 1518 1515 1509 1505 1506 1503 1505 1497 1504 1504 1507 1509 1508 1507 1502 1476 1484 1483 1478 1475 1475 1472
1507 1508 1509 1510 1514 1515 1516 1515 1516 1517 1517 1518 1519 1519 1520 1521 1518 1517 1518 1519 1520 1518 1515 1513 1513 1513 1514 1512 1515 1514 1512 1512 1511 1510 1507 1503 1504 1503 1498 1497 1500 1501 1490 1487 1490 1483 1476 1479 1478 1477 1475 1473 1471 1469
1496 1499 1500 1502 1505 1508 1508 1510 1509 1510 1514 1513 1513 1514 1517 1517 1518 1514 1514 1516 1517 1516 1511 1509 1508 1508 1507 1509 1508 1510 1511 1511 1510 1510 1510 1511 1509 1502 1495 1486 1488 1490 1489 1489 1485 1474 1474 1473 1474 1473 1471 1469 1467 1466
1490 1492 1494 1497 1499 1501 1503 1504 1505 1504 1507 1510 1510 1510 1512 1513 1515 1513 1512 1513 1513 1514 1511 1505 1503 1504 1502 1502 1504 1504 1503 1506 1508 1508 1508 1508 1506 1501 1495 1490 1488 1484 1486 1481 1475 1474 1471 1470 1468 1468 1466 1464 1462 1459
1491 1492 1493 1495 1498 1499 1500 1501 1502 1502 1503 1506 1507 1507 1509 1509 1511 1512 1509 1510 1510 1515 1508 1503 1498 1498 1498 1498 1499 1498 1500 1502 1504 1504 1505 1503 1503 1503 1494 1490 1480 1482 1476 1476 1467 1470 1467 1466 1465 1464 1461 1459 1456 1451
1489 1490 1489 1492 1495 1498 1501 1498 1497 1498 1502 1502 1503 1505 1504 1505 1507 1511 1509 1507 1506 1509 1510 1504 1493 1487 1491 1490 1492 1494 1495 1497 1498 1497 1497 1495 1496 1499 1489 1477 1470 1471 1471 1470 1467 1468 1466 1463 1461 1460 1457 1453 1450 1446
1484 1485 1487 1490 1493 1496 1495 1495 1494 1496 1496 1497 1501 1501 1501 1503 1504 1504 1507 1506 1506 1506 1507 1503 1491 1486 1485 1488 1486 1488 1490 1490 1490 1490 1490 1491 1493 1493 1481 1468 1470 1469 1468 1466 1464 1463 1459 1458 1454 1453 1450 1446 1444 1441
1485 1485 1483 1486 1491 1493 1495 1491 1489 1491 1492 1495 1497 1498 1496 1499 1498 1500 1501 1504 1505 1505 1507 1503 1494 1487 1484 1485 1485 1485 1485 1486 1484 1484 1483 1484 1486 1485 1472 1462 1461 1461 1461 1462 1461 1459 1456 1453 1449 1446 1444 1441 1439 1437
1482 1484 1486 1487 1490 1487 1491 1490 1489 1487 1489 1492 1495 1494 1494 1496 1494 1495 1496 1499 1502 1506 1500 1497 1492 1484 1483 1483 1482 1484 1483 1482 1481 1479 1479 1481 1476 1469 1459 1459 1459 1459 1460 1458 1455 1453 1452 1449 1446 1444 1443 1441 1437 1433
1475 1483 1484 1490 1488 1485 1489 1488 1487 1487 1487 1492 1492 1494 1492 1490 1493 1497 1495 1496 1498 1498 1494 1488 1487 1482 1484 1483 1481 1483 1480 1478 1473 1469 1473 1469 1456 1454 1454 1455 1455 1455 1454 1454 1452 1449 1447 1445 1445 1443 1441 1438 1434 1429
1476 1478 1484 1488 1486 1483 1486 1485 1487 1486 1487 1489 1490 1491 1490 1491 1494 1495 1494 1493 1493 1491 1486 1480 1481 1481 1481 1481 1479 1477 1473 1476 1471 1462 1465 1457 1448 1446 1448 1451 1451 1451 1451 1451 1450 1447 1444 1443 1441 1439 1439 1436 1432 1426
1473 1478 1483 1483 1482 1482 1484 1485 1485 1485 1485 1488 1489 1489 1489 1493 1492 1494 1490 1488 1487 1480 1479 1478 1480 1480 1479 1478 1477 1474 1470 1470 1464 1461 1462 1448 1441 1445 1448 1450 1451 1451 1451 1448 1447 1444 1441 1439 1437 1435 1433 1431 1426 1422
1472 1477 1478 1479 1480 1481 1483 1484 1483 1483 1485 1487 1488 1489 1490 1492 1491 1488 1486 1482 1479 1477 1478 1478 1478 1478 1476 1476 1474 1470 1465 1458 1458 1457 1445 1436 1439 1443 1445 1448 1450 1451 1448 1446 1443 1441 1438 1435 1431 1429 1426 1423 1419 1415
1470 1472 1473 1475 1477 1480 1481 1481 1482 1484 1486 1487 1487 1489 1487 1485 1482 1476 1474 1473 1476 1476 1477 1478 1477 1476 1472 1472 1468 1462 1454 1454 1448 1446 1437 1431 1438 1441 1444 1446 1446 1445 1444 1441 1439 1435 1431 1428 1425 1421 1419 1416 1412 1407
1465 1467 1470 1472 1475 1477 1479 1480 1481 1484 1485 1485 1486 1483 1479 1474 1472 1472 1472 1473 1473 1474 1476 1477 1477 1476 1472 1470 1462 1457 1454 1447 1437 1430 1433 1438 1439 1440 1439 1441 1439 1438 1434 1431 1429 1427 1423 1420 1417 1413 1410 1407 1404 1400
1461 1464 1465 1468 1471 1473 1476 1477 1479 1482 1484 1483 1480 1477 1472 1472 1469 1470 1470 1470 1473 1474 1475 1476 1476 1475 1468 1460 1456 1450 1444 1434 1429 1433 1437 1438 1437 1436 1434 1432 1430 1427 1425 1423 1420 1418 1415 1412 1407 1403 1400 1397 1394 1392
1456 1456 1459 1463 1467 1470 1473 1475 1478 1480 1479 1476 1471 1468 1468 1467 1465 1466 1467 1467 1468 1471 1472 1473 1471 1468 1462 1458 1449 1441 1438 1436 1436 1436 1435 1434 1431 1429 1426 1423 1420 1418 1416 1414 1411 1408 1405 1401 1398 1394 1390 1386 1384 1381
1449 1451 1455 1459 1463 1467 1469 1471 1474 1472 1469 1466 1465 1458 1460 1461 1462 1463 1462 1463 1465 1465 1465 1464 1462 1459 1454 1447 1442 1440 1439 1437 1433 1430 1426 1424 1423 1421 1418 1415 1412 1408 1405 1403 1400 1397 1394 1391 1388 1384 1381 1378 1375 1371
1442 1445 1450 1454 1458 1461 1463 1463 1463 1459 1457 1457 1453 1453 1456 1456 1455 1453 1456 1456 1457 1459 1459 1457 1455 1449 1443 1440 1435 1430 1427 1424 1422 1419 1417 1415 1412 1409 1406 1404 1401 1398 1396 1392 1389 1386 1383 1381 1378 1375 1372 1370 1366 1362
1435 1438 1443 1448 1451 1454 1454 1455 1454 1452 1450 1449 1449 1447 1448 1447 1446 1447 1446 1446 1450 1451 1450 1446 1437 1431 1428 1423 1419 1418 1416 1414 1413 1410 1406 1403 1399 1398 1394 1392 1389 1386 1382 1378 1375 1374 1372 1369 1365 1363 1361 1358 1356 1351
1426 1426 1435 1440 1443 1445 1444 1442 1443 1443 1442 1442 1440 1440 1440 1438 1437 1437 1436 1438 1441 1439 1435 1427 1420 1414 1412 1411 1409 1408 1406 1404 1402 1401 1395 1390 1388 1388 1384 1381 1380 1377 1374 1371 1366 1361 1361 1359 1355 1354 1352 1348 1345 1342
1420 1423 1429 1432 1435 1436 1435 1434 1436 1437 1439 1437 1437 1436 1436 1433 1431 1428 1429 1431 1428 1421 1415 1409 1407 1405 1404 1402 1397 1395 1393 1393 1392 1388 1382 1380 1377 1374 1372 1370 1368 1364 1361 1359 1357 1353 1349 1347 1346 1344 1341 1338 1336 1333
1423 1427 1429 1432 1434 1432 1431 1430 1432 1432 1433 1430 1431 1430 1427 1424 1421 1420 1418 1413 1408 1402 1399 1400 1396 1394 1394 1389 1388 1384 1383 1382 1378 1374 1371 1368 1365 1362 1361 1359 1356 1354 1349 1344 1346 1344 1340 1336 1335 1334 1332 1330 1327 1323
1423 1425 1426 1426 1425 1424 1425 1425 1427 1427 1427 1426 1425 1422 1419 1416 1413 1413 1406 1401 1395 1393 1392 1386 1386 1385 1382 1380 1376 1372 1369 1368 1365 1362 1359 1358 1353 1349 1348 1344 1342 1340 1339 1336 1335 1332 1329 1327 1327 1325 1323 1320 1317 1314
1421 1420 1419 1416 1416 1419 1419 1419 1420 1421 1419 1418 1419 1416 1409 1408 1408 1403 1396 1387 1383 1379 1377 1377 1375 1373 1371 1366 1363 1360 1358 1357 1354 1350 1345 1346 1344 1339 1334 1332 1328 1326 1328 1327 1323 1322 1320 1319 1317 1316 1315 1312 1309 1307
1412 1408 1407 1405 1407 1409 1409 1412 1414 1412 1411 1413 1410 1404 1403 1403 1401 1391 1381 1371 1370 1370 1368 1366 1364 1362 1360 1356 1353 1348 1344 1346 1343 1337 1332 1335 1332 1329 1324 1321 1316 1309 1318 1317 1315 1313 1311 1310 1309 1307 1306 1304 1303 1301
1403 1398 1398 1398 1400 1400 1403 1403 1403 1403 1403 1403 1396 1398 1397 1395 1386 1374 1365 1363 1361 1359 1358 1356 1354 1351 1347 1343 1340 1337 1335 1332 1330 1326 1323 1321 1318 1316 1315 1311 1306 1300 1307 1306 1305 1303 1302 1300 1299 1298 1296 1294 1293 1292
1390 1389 1391 1392 1393 1392 1394 1394 1394 1393 1388 1386 1387 1390 1386 1376 1363 1358 1355 1354 1353 1351 1347 1343 1340 1337 1334 1330 1327 1323 1318 1317 1315 1313 1309 1304 1301 1300 1298 1298 1295 1291 1291 1291 1291 1292 1290 1288 1287 1286 1286 1284 1282 1283
1380 1381 1383 1385 1387 1387 1384 1382 1378 1373 1373 1373 1372 1366 1359 1355 1352 1349 1345 1345 1342 1340 1335 1330 1323 1324 1321 1317 1313 1309 1306 1304 1303 1299 1297 1291 1286 1282 1285 1282 1281 1280 1280 1280 1280 1280 1279 1278 1277 1276 1276 1275 1274 1273
1371 1373 1375 1375 1377 1373 1366 1367 1361 1362 1363 1362 1360 1355 1350 1344 1341 1341 1337 1331 1329 1326 1321 1319 1315 1312 1307 1305 1300 1297 1296 1294 1291 1289 1285 1280 1276 1275 1275 1274 1273 1272 1272 1271 1270 1269 1270 1270 1269 1269 1268 1268 1267 1267
1362 1365 1366 1363 1359 1354 1355 1358 1356 1354 1353 1350 1350 1349 1339 1332 1330 1323 1323 1320 1315 1312 1309 1306 1303 1301 1299 1296 1292 1286 1280 1281 1279 1276 1273 1269 1267 1265 1265 1265 1265 1264 1263 1263 1262 1262 1262 1262 1262 1262 1261 1261 1261 1260
1354 1354 1355 1355 1348 1349 1350 1350 1347 1344 1342 1340 1335 1335 1330 1331 1326 1317 1307 1307 1306 1304 1302 1300 1297 1294 1292 1288 1283 1278 1272 1267 1263 1260 1258 1255 1253 1252 1252 1252 1252 1253 1253 1253 1253 1254 1254 1255 1255 1255 1255 1254 1255 1255
1348 1348 1348 1348 1346 1343 1342 1344 1340 1335 1331 1328 1323 1322 1321 1322 1319 1310 1304 1303 1301 1300 1298 1295 1291 1287 1282 1277 1272 1268 1263 1258 1254 1250 1247 1244 1242 1241 1240 1240 1240 1241 1242 1243 1244 1246 1247 1248 1248 1248 1249 1249 1249 1249